BEIDOU-3 G2 (PRN 144)

Last updated on Sat Sep 05 2026 00:03:32 GMT+0000 (Coordinated Universal Time)

1 45344U 20017A 26247.75436068 -.00000147 00000+0 00000+0 0 9991 2 45344 2.5635 48.2430 0002233 122.7203 164.5257 1.00270840 24054
UTC large
Height (km)
Speed (km/s)
/
Latitude / Longitude
Inclination (degrees)
Orbital Period (minutes)
Azimuth
Elevation
Range (km)
Doppler Factor

Next 0 passes for location: London (51.5072 / 0.1276)

No passes found over London.
BEIDOU-3 G2 (PRN 144)